Regional Weather Roundup
Issued by NWS

Home | Current Version | Previous Version | Text Only | Print | Product List | Glossary On
Versions: 1 2 3 4 5 6 7 8 9 10 11 12 13 14 15 16 17 18 19 20 21 22 23 24 25 26 27 28
000
ASUS42 KFFC 250003
RWRGA
WEATHER ROUNDUP FOR GEORGIA
NATIONAL WEATHER SERVICE PEACHTREE CITY GA
800 PM EDT TUE MAY 24 2016

NOTE: "FAIR" INDICATES FEW OR NO CLOUDS BELOW 12,000 FEET WITH NO
SIGNIFICANT WEATHER AND/OR OBSTRUCTIONS TO VISIBILITY.

* = USE WITH CAUTION. THE STATIONS MARKED WITH AN ASTERISK MAY NOT
REPORT WEATHER SUCH AS PRECIPITATION, FOG, OR THUNDER AND ARE NOT
QUALITY CONTROLLED BY NWS.

THE REMARK "TC" DENOTES TEMPERATURE READING IN DEGREES CELSIUS.

GAZ001>058-250100-
NORTH GEORGIA

CITY           SKY/WX    TMP DP  RH WIND       PRES   REMARKS
ATLANTA        PTCLDY    80  51  36 W8        30.12F
6HR MIN TEMP:  80; 6HR MAX TEMP:  85;

ATHENS         CLEAR     80  54  40 CALM      30.12S
6HR MIN TEMP:  80; 6HR MAX TEMP:  85;

CHAMBLEE       CLEAR     81  50  33 W5        30.12S
6HR MIN TEMP:  81; 6HR MAX TEMP:  86;

PEACHTREE CITY CLEAR     77  60  55 CALM      30.12S
6HR MIN TEMP:  77; 6HR MAX TEMP:  86;

ROME           CLEAR     81  53  37 CALM      30.10S
6HR MIN TEMP:  81; 6HR MAX TEMP:  86;

WEST ATLANTA   CLEAR     82  50  32 SW5       30.12S
6HR MIN TEMP:  81; 6HR MAX TEMP:  85;

GAINESVILLE    CLEAR     77  51  40 W6        30.16R
6HR MIN TEMP:  77; 6HR MAX TEMP:  82;

CARTERSVILLE   CLEAR     77  60  55 CALM      30.11F
6HR MIN TEMP:  77; 6HR MAX TEMP:  85;



CITY           SKY/WX    TMP DP  RH WIND       PRES   REMARKS
DALTON*        CLEAR     81  54  39 CALM      30.10F
LAWRENCEVILLE* CLEAR     81  50  34 CALM      30.14R
MARIETTA       PTCLDY    80  53  38 W2        30.12F
KENNESAW*      CLEAR     81  48  32 W5        30.08S
CANTON*        CLEAR     81  37  21 SW3       30.15S
BLAIRSVILLE*     N/A    N/A N/A N/A MISG      30.16S
$$

GAZ059>098-102>109-250100-
CENTRAL GEORGIA

CITY           SKY/WX    TMP DP  RH WIND       PRES   REMARKS
AUGUSTA-BUSH   MOCLDY    79  65  62 CALM      30.10R
6HR MIN TEMP:  77; 6HR MAX TEMP:  85;

AUGUSTA-DANIEL CLEAR     83  51  33 CALM      30.12R
6HR MIN TEMP:  83; 6HR MAX TEMP:  87;

COLUMBUS       CLEAR     82  48  30 SW6       30.10S
6HR MIN TEMP:  82; 6HR MAX TEMP:  86;

MACON          CLEAR     82  53  36 SE6       30.11S
6HR MIN TEMP:  82; 6HR MAX TEMP:  88;

ROBINS AFB     CLEAR     76  64  64 CALM      30.11R


CITY           SKY/WX    TMP DP  RH WIND       PRES   REMARKS
LAGRANGE*      PTCLDY    82  58  44 S5        30.12R
SYLVANIA*      PTCLDY    82  66  58 SE7       30.12R
MILLEDGEVILLE* CLEAR     77  61  57 CALM      30.12R
$$

GAZ099>101-110>166-250100-
SOUTH GEORGIA

CITY           SKY/WX    TMP DP  RH WIND       PRES   REMARKS
SAVANNAH       MOCLDY    76  64  66 SE9       30.14R
6HR MIN TEMP:  76; 6HR MAX TEMP:  83;

VALDOSTA       PTCLDY    83  59  44 NE3       30.09R
6HR MIN TEMP:  83; 6HR MAX TEMP:  88;

ALMA           PTCLDY    78  63  59 CALM      30.11R
6HR MIN TEMP:  78; 6HR MAX TEMP:  88;

ST SIMONS      CLOUDY    77  67  71 SE10      30.13R
6HR MIN TEMP:  77; 6HR MAX TEMP:  82;

FT STEWART     CLEAR     77  64  63 SE2       30.11R
ALBANY         CLEAR     83  48  29 SE5       30.12R
HUNTER AFB     CLEAR     76  67  75 SE6       30.11R
MOODY AFB      PTCLDY    83  57  41 E3        30.09R
BRUNSWICK      CLOUDY    82  68  61 SE7       30.13S


CITY           SKY/WX    TMP DP  RH WIND       PRES   REMARKS
BAINBRIDGE*    CLEAR     84  50  30 CALM      30.10S
MOULTRIE*      CLEAR     84  54  34 CALM      30.11R
VIDALIA*       PTCLDY    82  54  36 CALM      30.12R
WAYCROSS*      PTCLDY    80  60  50 SE8       30.11R
DOUGLAS*       CLOUDY    84  54  34 CALM      30.13R
$$




USA.gov is the U.S. government's official web portal to all federal, state and local government web resources and services.